Regional Weather Roundup
Issued by NWS

Home | Current Version | Previous Version | Graphics & Text | Print | Product List | Glossary On
Versions: 1 2 3 4 5 6 7 8 9 10 11 12 13 14 15 16 17 18 19 20 21 22 23 24 25 26 27 28 29 30 31 32 33 34 35 36 37 38 39 40 41 42 43 44 45 46 47 48 49 50
000
ASUS43 KFSD 242302
RWRSD

WEATHER ROUNDUP FOR SOUTH DAKOTA
NATIONAL WEATHER SERVICE SIOUX FALLS SD
600 PM CDT FRI OCT 24 2014

NOTE: "FAIR" INDICATES FEW OR NO CLOUDS BELOW 12,000 FEET WITH NO
SIGNIFICANT WEATHER AND/OR OBSTRUCTIONS TO VISIBILITY.


SDZ001>005-009-010-012>017-250000-
NORTHWEST AND NORTH CENTRAL SOUTH DAKOTA

CITY           SKY/WX    TMP DP  RH WIND       PRES   REMARKS
BUFFALO          N/A     60  29  30 NW12      30.00R
FAITH            N/A     64  33  31 N12       30.02R
MOBRIDGE       PTCLDY    69  37  30 NW10      29.94R
$$

SDZ012>016-024>037-041>051-057-063-072>074-250000-
SOUTHWEST AND SOUTH CENTRAL SOUTH DAKOTA

CITY           SKY/WX    TMP DP  RH WIND       PRES   REMARKS
RAPID CTY ARPT CLEAR     67  39  35 N10       30.04R
PIERRE         CLEAR     74  38  27 N12       29.94R
CUSTER         CLEAR     61  34  36 E8        30.11R
PHILIP         CLEAR     73  38  27 N10       29.97R
PINE RIDGE     CLEAR     76  34  21 SE3       30.00R
SPEARFISH      FAIR      63  37  39 NE7       30.07S
WINNER         FAIR      79  29  16 CALM      29.95R
$$

SDZ004>011-016>023-039-040-250000-
NORTHEAST SOUTH DAKOTA

CITY           SKY/WX    TMP DP  RH WIND       PRES   REMARKS
ABERDEEN       CLEAR     73  40  30 W9        29.90R
WATERTOWN      CLEAR     63  43  48 W6        29.91R
SISSETON         N/A     71  41  33 W8        29.85R
$$

SDZ017-020-022-023-036>040-048>070-250000-
SOUTHEAST SOUTH DAKOTA

CITY           SKY/WX    TMP DP  RH WIND       PRES   REMARKS
SIOUX FALLS    MOCLDY    72  41  32 NW6       29.91R
HURON          PTCLDY    75  37  25 NW6       29.90R
CHAMBERLAIN    CLEAR     74  37  25 CALM      29.94R
MITCHELL       CLEAR     74  41  30 S5        29.91S
YANKTON        PTCLDY    70  46  43 SW6       29.93R
$$

ABBREVIATIONS USED IN REMARKS
   TC - TEMPERATURE IN CELSIUS
  WCI - WIND CHILL INDEX
   HX - HEAT INDEX
  VSB - VISIBILITY




USA.gov is the U.S. government's official web portal to all federal, state and local government web resources and services.